Oslo Airport, Norway

10:26 AM CET on January 22, 2018 (GMT +0100)
Gardermoen

Weather History for ENGM - November, 2012

Change the Weather History Date:

Friday, November 16, 2012

  Actual Average Record
Temperature  
Mean Temperature 35 °F -  
Max Temperature 42 °F 32 °F 55 °F (2013)
Min Temperature 28 °F 23 °F 1 °F (1998)
Degree Days  
Heating Degree Days 30    
Moisture  
Dew Point 35 °F    
Average Humidity 93    
Maximum Humidity 100    
Minimum Humidity 84    
Precipitation  
Precipitation 0.00 in 0.10 in - ()
Sea Level Pressure  
Sea Level Pressure 29.89 in    
Wind  
Wind Speed 6 mph ()    
Max Wind Speed 14 mph    
Max Gust Speed -    
Visibility 6.2 miles    
Events      
Averages and records for this station are not official NWS values.
T = Trace of Precipitation, MM = Missing Value Source: Averaged Metar Reports

Daily Weather History Graph

Daily Weather History Graph

Search for Another Location

Airport or City:

Trip Planner

Search our weather history database for the weather conditions in past years. The results will help you decide how hot, cold, wet, or windy it might be!

Date:

Astronomy

Nov. 16, 2012 Rise Set
Actual Time 8:18 AM CET 3:42 PM CET
Civil Twilight 7:28 AM CET 4:32 PM CET
Nautical Twilight 6:35 AM CET 5:24 PM CET
Astronomical Twilight 5:46 AM CET 6:13 PM CET
Moon 11:15 AM CET (11/16) 6:05 PM CET (11/16)
Length of Visible Light 9h 03m
Length of Day
7h 23m
Waxing Crescent, 9% of the Moon is Illuminated
Nov 16
Waxing Crescent
Nov 20
First Quarter
Nov 28
Full
Dec 6
Last Quarter
Dec 13
New

Hourly Weather History & Observations

Time (CET) Temp. Windchill Dew Point Humidity Pressure Visibility Wind Dir Wind Speed Gust Speed Precip Events Conditions
12:14 AM 32.0 °F 27.5 °F 30.2 °F 93% 29.92 in - SW 4.6 mph - N/A   Clear
12:55 AM 28.4 °F 23.3 °F 26.6 °F 93% 29.92 in - SSW 4.6 mph - N/A   Clear
1:00 AM 33 °F - 30 °F 84%  in 47 mi South 8.9 mph - -   Partly Cloudy
1:10 AM 30.2 °F 23.4 °F 30.2 °F 100% 29.92 in - WSW 6.9 mph - N/A   Clear
1:40 AM 30.2 °F 23.4 °F 28.4 °F 93% 29.89 in - SSW 6.9 mph - N/A   Clear
2:10 AM 32.0 °F 28.7 °F 30.2 °F 93% 29.92 in - South 3.5 mph - N/A   Clear
2:41 AM 32.0 °F - 28.4 °F 87% 29.92 in - Variable 2.3 mph - N/A   Clear
3:11 AM 32.0 °F 28.7 °F 30.2 °F 93% 29.89 in - SSE 3.5 mph - N/A   Clear
3:46 AM 32.0 °F - 30.2 °F 93% 29.89 in - Variable 2.3 mph - N/A   Clear
4:10 AM 32.0 °F 26.4 °F 30.2 °F 93% 29.89 in - South 5.8 mph - N/A   Clear
4:40 AM 30.2 °F 24.3 °F 28.4 °F 93% 29.89 in - South 5.8 mph - N/A   Clear
5:10 AM 30.2 °F 25.4 °F 28.4 °F 93% 29.89 in - South 4.6 mph - N/A   Clear
5:40 AM 32.0 °F 26.4 °F 30.2 °F 93% 29.89 in - South 5.8 mph - N/A   Clear
6:10 AM 30.2 °F 25.4 °F 28.4 °F 93% 29.89 in - SSW 4.6 mph - N/A   Clear
6:44 AM 28.4 °F 23.3 °F 26.6 °F 93% 29.89 in - SSW 4.6 mph - N/A   Clear
7:00 AM 33 °F - 30 °F 86%  in 47 mi SSE 4.5 mph - -   Partly Cloudy
7:12 AM 30.2 °F 22.6 °F 28.4 °F 93% 29.89 in 6.2 mi South 8.1 mph - N/A   Partly Cloudy
7:42 AM 32.0 °F 24.2 °F 32.0 °F 100% 29.89 in 6.2 mi South 9.2 mph - N/A   Scattered Clouds
8:10 AM 33.8 °F 27.7 °F 33.8 °F 100% 29.89 in 6.2 mi South 6.9 mph - N/A   Mostly Cloudy
8:47 AM 33.8 °F 28.6 °F 32.0 °F 93% 29.89 in 6.2 mi SSW 5.8 mph - N/A   Mostly Cloudy
9:10 AM 33.8 °F 30.8 °F 33.8 °F 100% 29.89 in 6.2 mi SSW 3.5 mph - N/A   Mostly Cloudy
9:41 AM 35.6 °F 31.7 °F 33.8 °F 93% 29.89 in 6.2 mi SSW 4.6 mph - N/A   Overcast
10:10 AM 35.6 °F 30.7 °F 35.6 °F 100% 29.89 in 6.2 mi South 5.8 mph - N/A   Mostly Cloudy
10:45 AM 37.4 °F 31.4 °F 37.4 °F 100% 29.89 in 6.2 mi SSW 8.1 mph - N/A   Mostly Cloudy
11:14 AM 37.4 °F 30.3 °F 37.4 °F 100% 29.89 in 6.2 mi South 10.4 mph - N/A   Mostly Cloudy
11:40 AM 39.2 °F 31.6 °F 39.2 °F 100% 29.89 in 6.2 mi South 12.7 mph - N/A   Mostly Cloudy
12:11 PM 39.2 °F 32.0 °F 39.2 °F 100% 29.89 in 6.2 mi SSW 11.5 mph - N/A   Mostly Cloudy
12:40 PM 41.0 °F 35.8 °F 39.2 °F 93% 29.89 in 6.2 mi SSW 8.1 mph - N/A   Mostly Cloudy
1:00 PM 41 °F - 39 °F 92%  in 25 mi ENE 2.2 mph - -   Partly Cloudy
1:10 PM 41.0 °F 36.4 °F 39.2 °F 93% 29.89 in 6.2 mi SSW 6.9 mph - N/A   Mostly Cloudy
1:40 PM 41.0 °F 35.8 °F 39.2 °F 93% 29.89 in 6.2 mi SW 8.1 mph - N/A   Mostly Cloudy
2:10 PM 41.0 °F 35.8 °F 39.2 °F 93% 29.89 in 6.2 mi SSW 8.1 mph - N/A   Mostly Cloudy
2:40 PM 42.8 °F 39.3 °F 39.2 °F 87% 29.89 in 6.2 mi SW 5.8 mph - N/A   Mostly Cloudy
3:10 PM 42.8 °F 40.1 °F 39.2 °F 87% 29.89 in 6.2 mi SW 4.6 mph - N/A   Mostly Cloudy
3:40 PM 42.8 °F 39.3 °F 41.0 °F 93% 29.89 in 6.2 mi SSW 5.8 mph - N/A   Mostly Cloudy
4:11 PM 42.8 °F 38.6 °F 41.0 °F 93% 29.89 in 6.2 mi SSW 6.9 mph - N/A   Mostly Cloudy
4:41 PM 42.8 °F 39.3 °F 41.0 °F 93% 29.89 in 6.2 mi SW 5.8 mph - N/A   Mostly Cloudy
5:10 PM 42.8 °F 38.6 °F 41.0 °F 93% 29.89 in 6.2 mi SW 6.9 mph - N/A   Mostly Cloudy
5:40 PM 42.8 °F 38.0 °F 39.2 °F 87% 29.89 in 6.2 mi SSW 8.1 mph - N/A   Mostly Cloudy
6:12 PM 42.8 °F 37.0 °F 39.2 °F 87% 29.86 in 6.2 mi SSW 10.4 mph - N/A   Scattered Clouds
6:42 PM 41.0 °F 35.8 °F 39.2 °F 93% 29.89 in 6.2 mi SW 8.1 mph - N/A   Scattered Clouds
7:00 PM 40 °F - 39 °F 96%  in 25 mi SSW 6.7 mph - -   Partly Cloudy
7:10 PM 42.8 °F 36.6 °F 39.2 °F 87% 29.89 in 6.2 mi SSW 11.5 mph - N/A   Mostly Cloudy
7:41 PM 41.0 °F 36.4 °F 39.2 °F 93% 29.89 in 6.2 mi South 6.9 mph - N/A   Mostly Cloudy
8:10 PM 42.8 °F 35.8 °F 39.2 °F 87% 29.89 in 6.2 mi SSW 13.8 mph - N/A   Mostly Cloudy
8:40 PM 42.8 °F 37.5 °F 39.2 °F 87% 29.89 in 6.2 mi South 9.2 mph - N/A   Mostly Cloudy
9:10 PM 42.8 °F 37.0 °F 39.2 °F 87% 29.89 in 6.2 mi South 10.4 mph - N/A   Mostly Cloudy
9:42 PM 42.8 °F 37.5 °F 39.2 °F 87% 29.89 in 6.2 mi South 9.2 mph - N/A   Mostly Cloudy
10:11 PM 42.8 °F 39.3 °F 39.2 °F 87% 29.89 in 6.2 mi South 5.8 mph - N/A   Mostly Cloudy
10:40 PM 41.0 °F 35.8 °F 39.2 °F 93% 29.89 in 6.2 mi South 8.1 mph - N/A   Mostly Cloudy
11:10 PM 42.8 °F 38.0 °F 41.0 °F 93% 29.86 in 6.2 mi South 8.1 mph - N/A   Mostly Cloudy
11:40 PM 42.8 °F 37.5 °F 41.0 °F 93% 29.86 in 6.2 mi South 9.2 mph - N/A   Mostly Cloudy